Weather History for Guthrie, OK

Change the Weather History Date:

Monday, May 6, 2013

  Actual Average Record
Temperature  
Mean Temperature 57 °F -  
Max Temperature 73 °F 78 °F 96 °F (2014)
Min Temperature 42 °F 55 °F 42 °F (2013)
Degree Days  
Heating Degree Days 8    
Growing Degree Days 7 (Base 50)    
Moisture  
Dew Point 47 °F    
Average Humidity 73    
Maximum Humidity 100    
Minimum Humidity 43    
Precipitation  
Precipitation 0.00 in - - ()
Sea Level Pressure  
Sea Level Pressure 30.09 in    
Wind  
Wind Speed 2 mph (North)    
Max Wind Speed 9 mph    
Max Gust Speed -    
Visibility 7 miles    
Events Fog    
Averages and records for this station are not official NWS values.
T = Trace of Precipitation, MM = Missing Value Source: NWS Daily Summary

Daily Weather History Graph

Daily Weather History Graph

Search for Another Location

Airport:

Trip Planner

Search our weather history database for the weather conditions in past years. The results will help you decide how hot, cold, wet, or windy it might be!

Date:

Astronomy

May. 06, 2013 Rise Set
Actual Time 6:31 AM CDT 8:21 PM CDT
Civil Twilight 6:04 AM CDT 8:48 PM CDT
Nautical Twilight 5:30 AM CDT 9:22 PM CDT
Astronomical Twilight 4:54 AM CDT 9:58 PM CDT
Moon 4:28 AM CDT (5/6) 5:27 PM CDT (5/6)
Length of Visible Light 14h 44m
Length of Day
13h 49m
Waning Crescent, 11% of the Moon is Illuminated
May 6
Waning Crescent
May 9
New
May 17
First Quarter
May 24
Full
May 31
Last Quarter

Hourly Weather History & Observations

Time (CDT) Temp. Dew Point Humidity Pressure Visibility Wind Dir Wind Speed Gust Speed Precip Events Conditions
12:53 AM 51.1 °F 46.9 °F 86% 30.11 in 10.0 mi East 4.6 mph - N/A   Clear
1:53 AM 46.0 °F 44.1 °F 93% 30.10 in 8.0 mi Calm Calm - N/A   Clear
2:53 AM 46.0 °F 43.0 °F 89% 30.09 in 6.0 mi Calm Calm - N/A   Clear
3:53 AM 44.1 °F 42.1 °F 93% 30.09 in 4.0 mi Calm Calm - N/A   Clear
4:53 AM 43.0 °F 39.9 °F 89% 30.10 in 5.0 mi Calm Calm - N/A   Clear
5:27 AM 42.8 °F 41.0 °F 93% 30.09 in 1.2 mi Calm Calm - N/A   Clear
5:34 AM 42.8 °F 41.0 °F 93% 30.10 in 0.2 mi Calm Calm - N/A Fog Fog
5:53 AM 44.1 °F 42.1 °F 93% 30.11 in 0.2 mi Calm Calm - N/A Fog Fog
6:53 AM 42.1 °F 39.9 °F 92% 30.12 in 0.2 mi Calm Calm - N/A Fog Fog
7:53 AM 45.0 °F 44.1 °F 97% 30.14 in 0.2 mi Calm Calm - N/A Fog Fog
8:09 AM 46.4 °F 46.4 °F 100% 30.14 in 1.2 mi Calm Calm - N/A   Scattered Clouds
8:14 AM 48.2 °F 46.4 °F 93% 30.14 in 3.0 mi Calm Calm - N/A   Scattered Clouds
8:53 AM 52.0 °F 50.0 °F 93% 30.15 in 6.0 mi WNW 3.5 mph - N/A   Clear
9:53 AM 59.0 °F 50.0 °F 72% 30.15 in 9.0 mi Variable 3.5 mph - N/A   Clear
10:53 AM 64.0 °F 51.1 °F 63% 30.14 in 10.0 mi NW 9.2 mph - N/A   Partly Cloudy
11:53 AM 66.9 °F 51.1 °F 57% 30.13 in 10.0 mi Variable 4.6 mph - N/A   Partly Cloudy
12:53 PM 69.1 °F 52.0 °F 54% 30.12 in 10.0 mi Variable 3.5 mph - N/A   Mostly Cloudy
1:53 PM 70.0 °F 50.0 °F 49% 30.11 in 10.0 mi NW 5.8 mph - N/A   Mostly Cloudy
2:53 PM 69.1 °F 50.0 °F 51% 30.09 in 10.0 mi WNW 5.8 mph - N/A   Overcast
3:53 PM 71.1 °F 50.0 °F 47% 30.06 in 10.0 mi NW 8.1 mph - N/A   Clear
4:53 PM 72.0 °F 50.0 °F 46% 30.03 in 10.0 mi Variable 3.5 mph - N/A   Partly Cloudy
5:48 PM 71.6 °F 48.2 °F 43% 30.02 in 10.0 mi Calm Calm - N/A   Partly Cloudy
5:53 PM 72.0 °F 48.9 °F 44% 30.02 in 10.0 mi Calm Calm - N/A   Clear
6:53 PM 71.1 °F 50.0 °F 47% 30.02 in 10.0 mi Calm Calm - N/A   Clear
7:53 PM 68.0 °F 50.0 °F 52% 30.04 in 10.0 mi Calm Calm - N/A   Clear
8:53 PM 62.1 °F 51.1 °F 67% 30.05 in 10.0 mi Calm Calm - N/A   Clear
9:53 PM 60.1 °F 51.1 °F 72% 30.06 in 10.0 mi East 3.5 mph - N/A   Clear
10:53 PM 62.1 °F 51.1 °F 67% 30.05 in 10.0 mi East 8.1 mph - N/A   Clear
11:53 PM 61.0 °F 51.1 °F 70% 30.04 in 10.0 mi ESE 6.9 mph - N/A   Clear